Regional Weather Roundup
Issued by NWS

Home | Current Version | Previous Version | Graphics & Text | Print | Product List | Glossary On
Versions: 1 2 3 4 5 6 7 8 9 10 11 12 13 14 15 16 17 18 19 20 21 22 23 24 25 26 27 28 29 30 31 32 33 34 35 36 37 38 39 40 41 42 43 44 45 46 47 48 49 50
259
ASUS43 KLOT 110103
RWRIL

ILLINOIS REGIONAL WEATHER ROUNDUP
NATIONAL WEATHER SERVICE CHICAGO/ROMEOVILLE IL
700 PM CST SUN DEC 10 2017

NOTE: "FAIR" INDICATES FEW OR NO CLOUDS BELOW 12,000 FEET WITH NO
SIGNIFICANT WEATHER AND/OR OBSTRUCTIONS TO VISIBILITY.

* THESE STATIONS ARE NOT UNDER NWS QUALITY CONTROL. THEY ALSO MAY NOT
  REPORT WEATHER SUCH AS PRECIPITATION OR FOG.

ILZ001-002-007-009-015-016-024-110200-
NORTHWEST ILLINOIS

CITY           SKY/WX    TMP DP  RH WIND       PRES   REMARKS
MOLINE         CLEAR     32  22  66 NW7       30.08R WCI  26
STERLING*      CLEAR     28  22  78 N5        30.08R WCI  23
SAVANNA*       CLEAR     27  21  77 N3        30.08S
$$

ILZ003-004-008-010-011-017-018-110200-
NORTH CENTRAL ILLINOIS

CITY           SKY/WX    TMP DP  RH WIND       PRES   REMARKS
ROCKFORD       CLOUDY    29  19  66 NW10      30.08R WCI  20
FREEPORT*      MOCLDY    27  20  73 NW9       30.08S WCI  18
ROCHELLE*      CLOUDY    30  21  70 NW8       30.07R WCI  22
DE KALB*       CLOUDY    27  20  74 NW7       30.06R WCI  20
PERU*          CLOUDY    28  21  72 NW7       30.08R WCI  21
$$

ILZ005-006-012>014-019>023-110200-
NORTHEAST ILLINOIS

CITY           SKY/WX    TMP DP  RH WIND       PRES   REMARKS
CHICAGO-OHARE  MOCLDY    30  19  63 NW9       30.05R WCI  22
CHICAGO-MIDWAY CLOUDY    31  21  66 N13       30.05R WCI  21
AURORA         MOCLDY    26  20  77 NW6       30.06R WCI  19
LANSING*       PTCLDY    29  22  74 NW6       30.05R WCI  23
WAUKEGAN       CLOUDY    27  19  72 N6        30.04R WCI  20
DUPAGE AIRPORT CLOUDY    29  21  72 N8        30.05R WCI  21
KANKAKEE*      CLOUDY    31  20  65 NW7       30.06R WCI  24
WHEELING       CLOUDY    29  21  72 N7        30.07R WCI  22
MORRIS*        PTCLDY    30  21  69 NW8       30.06R WCI  22
ROMEOVILLE*    CLOUDY    30  21  69 N7        30.05R WCI  23
NORTHERLY ISL    N/A     31  20  63 NW5         N/A  WCI  26
$$

LMZ740>746-110200-
SOUTHERN LAKE MICHIGAN

STATION/POSITION SKY/WX   TEMP    WIND        PRES    VSBY  WAVE
                          AIR SEA DIR/SP/G                  HT/PER
                          (F)     (DEG/KT/KT) (MB)    (MI)  (FT/S)
HARRISON CRIB              31     320/ 14/ 16   N/A
BURNHAM HARBOR             30     300/  4/ 14   N/A
CALUMET HARBOR             30     290/  7/ 11 1016.6R
BURNS HARBOR               33     310/ 14/ 18 1017.3R
MICHIGAN CITY              32     300/ 17/ 21   N/A
$$

ILZ025>027-034>036-040-047-049-050-058-095>099-110200-
WEST-CENTRAL ILLINOIS

CITY           SKY/WX    TMP DP  RH WIND       PRES   REMARKS
QUINCY         CLEAR     35  23  61 CALM      30.10R
GALESBURG*     CLEAR     27  22  82 NW5       30.09S WCI  21
MACOMB*        CLEAR     25  19  78 W8        30.11R WCI  16
JACKSONVILLE*  CLEAR     32  22  66 W7        30.10R WCI  26
PITTSFIELD*    CLEAR     34  23  65 NW3       30.12R
$$

ILZ028>032-037-038-041>044-048-051>054-059>061-110200-
CENTRAL ILLINOIS

CITY           SKY/WX    TMP DP  RH WIND       PRES   REMARKS
PONTIAC        PTCLDY    32  24  71 NW6       30.08R WCI  26
BLOOMINGTON    CLOUDY    30  23  75 NW8       30.08R WCI  22
DECATUR        CLEAR     34  24  67 NW6       30.08R WCI  29
PEORIA         CLEAR     32  22  66 CALM      30.09R
LACON*         CLOUDY    30  22  72 NW3       30.08R
LINCOLN*       CLEAR     32  25  74 NW3       30.09R
SPRINGFIELD    CLEAR     35  23  61 NW7       30.10R WCI  29
TAYLORVILLE    CLEAR     34  23  63 W6        30.10R WCI  29
$$

ILZ033-039-045-046-055>057-062-063-110200-
EAST-CENTRAL ILLINOIS

CITY           SKY/WX    TMP DP  RH WIND       PRES   REMARKS
CHAMPAIGN      CLEAR     28  21  75 NW7       30.07R WCI  21
DANVILLE*      CLEAR     31  22  69 NW10      30.03R WCI  22
RANTOUL*       CLEAR     32  24  71 NW8       30.06R WCI  25
MATTOON        CLEAR     32  23  69 W7        30.06R WCI  26
PARIS*         CLEAR     30  23  75 W9        30.07R WCI  22
$$

ILZ079-100>102-110200-
SOUTHWEST ILLINOIS

CITY           SKY/WX    TMP DP  RH WIND       PRES   REMARKS
ALTON          CLEAR     37  27  65 CALM      30.12R
BELLEVILLE     CLOUDY    37  24  58 NW6       30.11R WCI  32
CAHOKIA*       CLEAR     41  24  51 NW8       30.12R
$$

ILZ064>066-069>071-074>076-080>082-084>086-088>090-092>094-110200-
SOUTH-CENTRAL ILLINOIS

CITY           SKY/WX    TMP DP  RH WIND       PRES   REMARKS
CARBONDALE     CLOUDY    40  28  62 SW9       30.11R
CAIRO*         CLOUDY    46  33  61 SW10      30.12R
EFFINGHAM*     CLOUDY    35  26  70 W5        30.11R WCI  31
MARION         CLEAR     43  30  61 SW12      30.11R
MT. VERNON     CLOUDY    31  26  82 CALM      30.11R
CENTRALIA*     CLOUDY    40  28  61 NW5       30.10R
SALEM*         CLOUDY    39  25  57 NW5       30.11R
METROPOLIS*    CLOUDY    40  30  68 SW3       30.12R
$$

ILZ067-068-072-073-078-083-087-091-110200-
SOUTHEAST ILLINOIS

CITY           SKY/WX    TMP DP  RH WIND       PRES   REMARKS
LAWRENCEVILLE  PTCLDY    38  25  59 W6        30.09R WCI  33
FLORA*         CLOUDY    40  26  57 NW6       30.10R
FAIRFIELD*     CLOUDY    33  25  72 CALM      30.09R
HARRISBURG*    CLOUDY    39  29  69 W5        30.10R
ROBINSON*      CLEAR     33  25  71 W9        30.09R WCI  25
CARMI*         CLOUDY    38  29  70 W3        30.10R
$$

ABBREVIATIONS USED IN REMARKS
   TC - TEMPERATURE IN CELSIUS
  WCI - WIND CHILL INDEX
   HX - HEAT INDEX
  VSB - VISIBILITY
$$





USA.gov is the U.S. government's official web portal to all federal, state and local government web resources and services.